Odessa, Ukraine

3:23 PM EET on January 22, 2017 (GMT +0200)
Odesa

Weather History for UKOO - January, 2017

Change the Weather History Date:

Thursday, January 12, 2017

  Actual Average Record
Temperature  
Mean Temperature 19 °F -  
Max Temperature 26 °F 35 °F 53 °F (2005)
Min Temperature 12 °F 23 °F 8 °F (2003)
Degree Days  
Heating Degree Days 46    
Moisture  
Dew Point 17 °F    
Average Humidity 86    
Maximum Humidity 100    
Minimum Humidity 55    
Precipitation  
Precipitation 0.00 in 0.05 in - ()
Sea Level Pressure  
Sea Level Pressure 29.87 in    
Wind  
Wind Speed 8 mph ()    
Max Wind Speed 16 mph    
Max Gust Speed -    
Visibility 5.0 miles    
Events      
Averages and records for this station are not official NWS values.
T = Trace of Precipitation, MM = Missing Value Source: Averaged Metar Reports

Daily Weather History Graph

Daily Weather History Graph

Search for Another Location

Airport or City:

Trip Planner

Search our weather history database for the weather conditions in past years. The results will help you decide how hot, cold, wet, or windy it might be!

Date:

Astronomy

Jan. 12, 2017 Rise Set
Actual Time 7:37 AM EET 4:32 PM EET
Civil Twilight 7:03 AM EET 5:07 PM EET
Nautical Twilight 6:26 AM EET 5:44 PM EET
Astronomical Twilight 5:50 AM EET 6:20 PM EET
Moon 4:51 PM EET (1/12) 7:09 AM EET (1/12)
Length of Visible Light 10h 03m
Length of Day
8h 55m
Full, 100% of the Moon is Illuminated
Jan 12
Full
Jan 12
Full
Jan 20
Last Quarter
Jan 28
New
Feb 4
First Quarter

Hourly Weather History & Observations

Time (EET) Temp. Windchill Dew Point Humidity Pressure Visibility Wind Dir Wind Speed Gust Speed Precip Events Conditions
12:00 AM 21.2 °F 9.7 °F 19.4 °F 93% 29.95 in 4.3 mi SW 11.2 mph - N/A   Unknown
12:30 AM 21.2 °F 9.7 °F 19.4 °F 93% 29.95 in 5.6 mi SW 11.2 mph - N/A   Unknown
1:00 AM 21.2 °F 8.5 °F 19.4 °F 93% 29.95 in - SW 13.4 mph - N/A   Clear
1:30 AM 21.2 °F 9.7 °F 21.2 °F 100% 29.95 in 5.0 mi SW 11.2 mph - N/A   Mostly Cloudy
2:00 AM 23 °F - 19 °F 77% 29.97 in 6 mi SW 4.5 mph - -   Overcast
2:00 AM 23.0 °F 11.9 °F 21.2 °F 93% 29.95 in - SSW 11.2 mph - N/A   Clear
2:30 AM 23.0 °F 9.8 °F 21.2 °F 93% 29.95 in - SSW 15.7 mph - N/A   Clear
3:00 AM 23.0 °F 9.8 °F 21.2 °F 93% 29.95 in - SSW 15.7 mph - N/A   Clear
3:30 AM 23.0 °F 10.8 °F 21.2 °F 93% 29.92 in - SSW 13.4 mph - N/A   Clear
4:00 AM 23.0 °F 11.9 °F 21.2 °F 93% 29.89 in - SW 11.2 mph - N/A   Clear
4:30 AM 23.0 °F 13.2 °F 21.2 °F 93% 29.89 in - SW 8.9 mph - N/A   Clear
5:00 AM 24 °F - 20 °F 77% 29.88 in 6 mi WSW 4.5 mph - -   Overcast
5:00 AM 23.0 °F 13.2 °F 21.2 °F 93% 29.86 in - SW 8.9 mph - N/A   Clear
5:30 AM 23.0 °F 13.2 °F 21.2 °F 93% 29.83 in - WSW 8.9 mph - N/A   Clear
6:00 AM 23.0 °F 10.8 °F 21.2 °F 93% 29.83 in - WSW 13.4 mph - N/A   Clear
6:30 AM 23.0 °F 11.9 °F 19.4 °F 86% 29.83 in - SW 11.2 mph - N/A   Clear
7:00 AM 23.0 °F 10.8 °F 21.2 °F 93% 29.83 in - SW 13.4 mph - N/A   Clear
7:30 AM 23.0 °F 10.8 °F 19.4 °F 86% 29.80 in - WSW 13.4 mph - N/A   Clear
8:00 AM 24 °F - 17 °F 65% 29.83 in 13 mi WSW 6.7 mph - -   Overcast
8:00 AM 23.0 °F 10.8 °F 19.4 °F 86% 29.80 in - SW 13.4 mph - N/A   Clear
8:30 AM 21.2 °F 8.5 °F 17.6 °F 86% 29.83 in - WSW 13.4 mph - N/A   Clear
9:00 AM 21.2 °F 9.7 °F 17.6 °F 86% 29.83 in - WSW 11.2 mph - N/A   Clear
9:30 AM 19.4 °F 8.8 °F 17.6 °F 93% 29.83 in - WSW 8.9 mph - N/A   Clear
10:00 AM 19.4 °F 8.8 °F 17.6 °F 93% 29.83 in - WSW 8.9 mph - N/A   Clear
10:30 AM 21.2 °F 15.0 °F 17.6 °F 86% 29.83 in - SW 4.5 mph - N/A   Clear
11:00 AM 23 °F - 16 °F 64% 29.84 in 12 mi WSW 6.7 mph - -   Partly Cloudy
11:00 AM 21.2 °F 11.0 °F 17.6 °F 86% 29.83 in - SW 8.9 mph - N/A   Clear
11:30 AM 23.0 °F 13.2 °F 17.6 °F 80% 29.80 in - SW 8.9 mph - N/A   Clear
12:00 PM 23.0 °F 11.9 °F 17.6 °F 80% 29.80 in - WSW 11.2 mph - N/A   Clear
12:30 PM 23.0 °F 14.9 °F 17.6 °F 80% 29.80 in - WSW 6.7 mph - N/A   Clear
1:00 PM 24.8 °F 17.1 °F 17.6 °F 74% 29.80 in - West 6.7 mph - N/A   Clear
1:30 PM 24.8 °F 17.1 °F 17.6 °F 74% 29.80 in - WSW 6.7 mph - N/A   Clear
2:00 PM 26 °F - 16 °F 55% 29.83 in 10 mi West 4.5 mph - -   Scattered Clouds
2:00 PM 24.8 °F 15.5 °F 17.6 °F 74% 29.80 in - West 8.9 mph - N/A   Clear
2:30 PM 24.8 °F 17.1 °F 17.6 °F 74% 29.80 in - West 6.7 mph - N/A   Clear
3:00 PM 24.8 °F 17.1 °F 17.6 °F 74% 29.80 in - West 6.7 mph - N/A   Clear
3:30 PM 23.0 °F 14.9 °F 17.6 °F 80% 29.83 in - WNW 6.7 mph - N/A   Clear
4:00 PM 23.0 °F 17.1 °F 17.6 °F 80% 29.83 in - NW 4.5 mph - N/A   Clear
4:30 PM 21.2 °F - 17.6 °F 86% 29.83 in 6.2 mi Calm Calm - N/A   Scattered Clouds
5:00 PM 22 °F - 15 °F 62% 29.86 in 7 mi West 2.2 mph - -   Mostly Cloudy
5:00 PM 19.4 °F - 15.8 °F 86% 29.83 in - Calm Calm - N/A   Clear
5:30 PM 17.6 °F - 14.0 °F 86% 29.86 in - Calm Calm - N/A   Clear
6:00 PM 15.8 °F - 14.0 °F 93% 29.86 in 3.7 mi Calm Calm - N/A   Unknown
6:30 PM 15.8 °F 8.7 °F 14.0 °F 93% 29.86 in 3.1 mi SW 4.5 mph - N/A   Mist
7:00 PM 15.8 °F - 14.0 °F 93% 29.89 in - Calm Calm - N/A   Mist
7:30 PM 14.0 °F - 12.2 °F 93% 29.89 in - Calm Calm - N/A   Mist
7:41 PM 14.0 °F - 12.2 °F 93% 29.89 in 1.8 mi Calm Calm - N/A   Clear
7:50 PM 12.2 °F - 10.4 °F 92% 29.89 in - Calm Calm - N/A   Clear
7:55 PM 12.2 °F - 12.2 °F 100% 29.89 in 1.7 mi Calm Calm - N/A   Clear
8:00 PM 19 °F - 16 °F 83% 29.91 in 5 mi West 4.5 mph - -   Mist
8:00 PM 12.2 °F - 12.2 °F 100% 29.89 in 1.9 mi Calm Calm - N/A   Clear
8:02 PM 12.2 °F - 10.4 °F 92% 29.89 in 1.7 mi Calm Calm - N/A   Clear
8:30 PM 12.2 °F - 10.4 °F 92% 29.89 in 1.3 mi SW 2.2 mph - N/A   Clear
8:55 PM 12.2 °F - 12.2 °F 100% 29.89 in 0.7 mi Calm Calm - N/A   Clear
9:00 PM 12.2 °F - 10.4 °F 92% 29.89 in - Calm Calm - N/A   Clear
9:30 PM 12.2 °F 4.5 °F 10.4 °F 92% 29.92 in - SW 4.5 mph - N/A   Clear
10:00 PM 12.2 °F - 10.4 °F 92% 29.92 in 3.1 mi Calm Calm - N/A   Mist
10:30 PM 12.2 °F - 10.4 °F 92% 29.92 in 4.3 mi Variable 2.2 mph - N/A   Unknown
11:00 PM 19 °F - 13 °F 69% 29.94 in 6 mi West 6.7 mph - -   Scattered Clouds
11:00 PM 15.8 °F - 12.2 °F 86% 29.92 in 5.0 mi Variable 2.2 mph - N/A   Unknown
11:30 PM 15.8 °F 8.7 °F 12.2 °F 86% 29.92 in 5.0 mi West 4.5 mph - N/A   Unknown